• In Uzbekistan
  • List of Countries
  • For 7 days
  • Water Temperature
  • Satellite Maps
  • Weather Map
  • Weather Widgets
  • user-avatar
    Login

    Hourly Weather Bad Heilbrunn

    Today, 20 April, Saturday

    Time Temperature Precipitation Wind Pressure Humidity
    00:00 +9°C° 0 mm 2 mps 741 mmHg 75%
    01:00 +8°C° 0 mm 2 mps 742 mmHg 78%
    02:00 +8°C° 0 mm 2 mps 741 mmHg 77%
    03:00 +7°C° 0 mm 2 mps 741 mmHg 77%
    04:00 +8°C° 0 mm 1 mps 741 mmHg 76%
    05:00 +9°C° 0 mm 1 mps 741 mmHg 74%
    06:00 +10°C° 0 mm 1 mps 741 mmHg 72%
    07:00 +11°C° 0 mm 1 mps 742 mmHg 70%
    08:00 +13°C° 0 mm 1 mps 742 mmHg 65%
    09:00 +15°C° 0 mm 2 mps 742 mmHg 59%
    10:00 +17°C° 0 mm 2 mps 742 mmHg 54%
    11:00 +18°C° 0 mm 3 mps 742 mmHg 51%
    12:00 +19°C° 0 mm 3 mps 742 mmHg 48%
    13:00 +19°C° 0 mm 3 mps 741 mmHg 45%
    14:00 +19°C° 0 mm 3 mps 741 mmHg 46%
    15:00 +19°C° 0 mm 3 mps 741 mmHg 46%
    16:00 +19°C° 0 mm 3 mps 741 mmHg 46%
    17:00 +17°C° 0 mm 3 mps 740 mmHg 52%
    18:00 +14°C° 0 mm 3 mps 740 mmHg 58%
    19:00 +13°C° 0 mm 2 mps 740 mmHg 64%
    20:00 +12°C° 0 mm 2 mps 740 mmHg 64%
    21:00 +9°C° 0 mm 2 mps 740 mmHg 64%
    22:00 +8°C° 0 mm 2 mps 740 mmHg 64%
    23:00 +8°C° 0 mm 1 mps 740 mmHg 68%

    Tomorrow, 21 April, Sunday

    Time Temperature Precipitation Wind Pressure Humidity
    00:00 +8°C° 0 mm 1 mps 739 mmHg 71%
    01:00 +7°C° 0 mm 1 mps 739 mmHg 75%
    02:00 +7°C° 0 mm 1 mps 739 mmHg 78%
    03:00 +6°C° 0 mm 1 mps 739 mmHg 80%
    04:00 +6°C° 0 mm 1 mps 738 mmHg 83%
    05:00 +7°C° 0 mm 1 mps 738 mmHg 79%
    06:00 +8°C° 0 mm 0 mps 738 mmHg 75%
    07:00 +9°C° 0 mm 0 mps 738 mmHg 71%
    08:00 +12°C° 0 mm 1 mps 738 mmHg 64%
    09:00 +14°C° 0 mm 1 mps 738 mmHg 58%
    10:00 +16°C° 0 mm 2 mps 738 mmHg 52%
    11:00 +17°C° 0 mm 2 mps 737 mmHg 49%
    12:00 +18°C° 0 mm 2 mps 737 mmHg 46%
    13:00 +19°C° 0 mm 3 mps 736 mmHg 43%
    14:00 +19°C° 0 mm 3 mps 736 mmHg 44%
    15:00 +19°C° 0 mm 3 mps 735 mmHg 45%
    16:00 +19°C° 0 mm 3 mps 735 mmHg 46%
    17:00 +17°C° 0 mm 3 mps 734 mmHg 53%
    18:00 +15°C° 0 mm 2 mps 734 mmHg 60%
    19:00 +13°C° 0 mm 2 mps 734 mmHg 67%
    20:00 +12°C° 0 mm 2 mps 734 mmHg 69%
    21:00 +10°C° 0 mm 2 mps 734 mmHg 71%
    22:00 +9°C° 0 mm 2 mps 734 mmHg 73%
    23:00 +8°C° 0 mm 2 mps 733 mmHg 74%

    Day after tomorrow, 22 April, Monday

    Time Temperature Precipitation Wind Pressure Humidity
    00:00 +8°C° 0 mm 2 mps 733 mmHg 75%
    01:00 +8°C° 0 mm 2 mps 733 mmHg 75%
    02:00 +7°C° 0 mm 2 mps 733 mmHg 75%
    03:00 +7°C° 0 mm 2 mps 732 mmHg 75%
    04:00 +7°C° 0 mm 2 mps 732 mmHg 74%
    05:00 +8°C° 0 mm 2 mps 732 mmHg 72%
    06:00 +9°C° 0 mm 2 mps 732 mmHg 70%
    07:00 +10°C° 0 mm 2 mps 732 mmHg 67%
    08:00 +11°C° 0 mm 3 mps 731 mmHg 62%
    09:00 +13°C° 0 mm 4 mps 731 mmHg 56%
    10:00 +15°C° 0 mm 5 mps 731 mmHg 50%
    11:00 +16°C° 0 mm 6 mps 731 mmHg 50%
    12:00 +16°C° 0 mm 6 mps 730 mmHg 49%
    13:00 +17°C° 0 mm 6 mps 730 mmHg 48%
    14:00 +16°C° 0 mm 6 mps 730 mmHg 48%
    15:00 +16°C° 0 mm 6 mps 729 mmHg 48%
    16:00 +16°C° 0 mm 7 mps 729 mmHg 48%
    17:00 +14°C° 0 mm 6 mps 728 mmHg 52%
    18:00 +13°C° 0 mm 6 mps 728 mmHg 56%
    19:00 +10°C° 0 mm 5 mps 728 mmHg 59%
    20:00 +9°C° 0 mm 5 mps 728 mmHg 61%
    21:00 +9°C° 0 mm 5 mps 728 mmHg 62%
    22:00 +8°C° 0 mm 5 mps 728 mmHg 64%
    23:00 +7°C° 0 mm 5 mps 727 mmHg 67%

    23 April, Tuesday

    Time Temperature Precipitation Wind Pressure Humidity
    00:00 +7°C° 0 mm 5 mps 727 mmHg 71%
    01:00 +7°C° 0 mm 4 mps 727 mmHg 74%
    02:00 +6°C° 0 mm 4 mps 726 mmHg 77%
    03:00 +6°C° 0 mm 4 mps 726 mmHg 81%
    04:00 +6°C° 0 mm 4 mps 725 mmHg 84%
    05:00 +6°C° 0 mm 5 mps 725 mmHg 84%
    06:00 +7°C° 0 mm 6 mps 724 mmHg 84%
    07:00 +7°C° 0 mm 6 mps 724 mmHg 84%
    08:00 +8°C° 0 mm 7 mps 724 mmHg 82%
    09:00 +9°C° 0 mm 7 mps 724 mmHg 79%
    10:00 +10°C° 0 mm 7 mps 723 mmHg 77%
    11:00 +10°C° 0.1 mm 7 mps 723 mmHg 77%
    12:00 +11°C° 0.1 mm 7 mps 723 mmHg 77%
    13:00 +11°C° 0.1 mm 7 mps 722 mmHg 76%
    14:00 +10°C° 0.2 mm 7 mps 722 mmHg 79%
    15:00 +9°C° 0.2 mm 7 mps 721 mmHg 81%
    16:00 +9°C° 0.2 mm 6 mps 721 mmHg 83%
    17:00 +9°C° 0.2 mm 5 mps 721 mmHg 86%
    18:00 +10°C° 0.2 mm 4 mps 721 mmHg 88%
    19:00 +9°C° 0.2 mm 3 mps 720 mmHg 90%
    20:00 +9°C° 0.3 mm 3 mps 720 mmHg 91%
    21:00 +9°C° 0.3 mm 3 mps 720 mmHg 93%
    22:00 +8°C° 0.3 mm 2 mps 720 mmHg 94%
    23:00 +8°C° 0 mm 2 mps 720 mmHg 95%

    24 April, Wednesday

    Time Temperature Precipitation Wind Pressure Humidity
    00:00 +7°C° 0 mm 2 mps 720 mmHg 96%
    01:00 +7°C° 0 mm 1 mps 720 mmHg 96%
    02:00 +7°C° 0 mm 1 mps 720 mmHg 96%
    03:00 +6°C° 0 mm 2 mps 720 mmHg 97%
    04:00 +6°C° 0 mm 2 mps 721 mmHg 97%
    05:00 +7°C° 0 mm 2 mps 721 mmHg 95%
    06:00 +8°C° 0 mm 2 mps 721 mmHg 93%
    07:00 +9°C° 0 mm 3 mps 722 mmHg 92%
    08:00 +11°C° 0 mm 3 mps 722 mmHg 84%
    09:00 +13°C° 0 mm 4 mps 723 mmHg 76%
    10:00 +17°C° 0 mm 4 mps 724 mmHg 69%
    11:00 +17°C° 0.2 mm 4 mps 724 mmHg 68%
    12:00 +17°C° 0.2 mm 5 mps 724 mmHg 68%
    13:00 +19°C° 0.2 mm 5 mps 725 mmHg 68%
    14:00 +19°C° 0.8 mm 5 mps 725 mmHg 71%
    15:00 +19°C° 0.8 mm 4 mps 725 mmHg 74%
    16:00 +19°C° 0.8 mm 4 mps 725 mmHg 77%
    17:00 +18°C° 0.3 mm 3 mps 726 mmHg 81%
    18:00 +17°C° 0.3 mm 3 mps 726 mmHg 85%
    19:00 +16°C° 0.3 mm 2 mps 726 mmHg 89%
    20:00 +15°C° 0 mm 2 mps 727 mmHg 90%
    21:00 +14°C° 0 mm 2 mps 727 mmHg 91%
    22:00 +13°C° 0 mm 2 mps 727 mmHg 92%
    23:00 +13°C° 0 mm 2 mps 727 mmHg 92%

    25 April, Thursday

    Time Temperature Precipitation Wind Pressure Humidity
    00:00 +13°C° 0 mm 2 mps 728 mmHg 92%
    01:00 +12°C° 0 mm 2 mps 728 mmHg 92%
    02:00 +12°C° 0 mm 2 mps 728 mmHg 92%
    03:00 +12°C° 0 mm 2 mps 728 mmHg 91%
    04:00 +12°C° 0 mm 2 mps 728 mmHg 90%
    05:00 +13°C° 0 mm 1 mps 728 mmHg 86%
    06:00 +14°C° 0 mm 1 mps 728 mmHg 83%
    07:00 +15°C° 0 mm 1 mps 728 mmHg 79%
    08:00 +17°C° 0 mm 2 mps 728 mmHg 70%
    09:00 +20°C° 0 mm 3 mps 728 mmHg 62%
    10:00 +22°C° 0 mm 4 mps 728 mmHg 53%
    11:00 +23°C° 0 mm 5 mps 728 mmHg 51%
    12:00 +23°C° 0 mm 5 mps 728 mmHg 50%
    13:00 +24°C° 0 mm 6 mps 727 mmHg 48%
    14:00 +24°C° 0 mm 6 mps 727 mmHg 51%
    15:00 +23°C° 0 mm 6 mps 726 mmHg 54%
    16:00 +23°C° 0 mm 6 mps 726 mmHg 58%
    17:00 +21°C° 0 mm 6 mps 725 mmHg 63%
    18:00 +19°C° 0 mm 5 mps 725 mmHg 69%
    19:00 +17°C° 0 mm 5 mps 725 mmHg 74%
    20:00 +16°C° 0 mm 5 mps 725 mmHg 77%
    21:00 +15°C° 0 mm 5 mps 724 mmHg 80%
    22:00 +14°C° 0 mm 4 mps 724 mmHg 83%
    23:00 +13°C° 0 mm 4 mps 724 mmHg 86%
    Show more